#datint,netname,site,siteID,timestamp,IntT,BattV,AirT2,AirT,AirT_Avg,AirT_Max,AirT_Min,RH_Avg,RH_Max,RH_Min,EA_Avg,Td_Avg,Td_Max,Td_Min,WindS_Smp,WindS_Avg,WindD_Avg,WindD_SD,WindS_Max,ETo,ETr,SoilT4,SoilT8,SoilVWC8,SolarW_Avg,wetstate_Avg,wetT_Avg,Precip_accum,Precip_WPG,Precip_TB
15min,AgWx,beryljct,423,16MAR2019:00:00:00,29.8,12.93,33.6,32.4,32.4,32.9,31.8,74,75,72,0.450,25.0,25.3,24.5,2.806,1.0,41,33,3.7,-0.00017,-0.00024,.,38.1,26,0,0,35.8,12.62,0.00,0.00
15min,AgWx,beryljct,423,16MAR2019:00:15:00,29.6,12.8,31.1,31.2,32.0,32.7,31.2,74,75,72,0.441,24.5,25.0,24.1,0,0.8,50,2.0,3.9,-0.00017,-0.00024,.,38.1,26,0,0,35.4,12.62,0.00,0.00
15min,AgWx,beryljct,423,16MAR2019:00:30:00,29.3,12.9,32.2,31.9,31.5,32.0,30.9,75,76,73,0.449,24.4,24.8,23.9,0.438,0.4,88,12,1.5,-0.00021,-0.00031,.,38.1,27,0,0,35.1,12.63,0.00,0.00
15min,AgWx,beryljct,423,16MAR2019:00:45:00,28.9,12.9,28.9,29.1,30.8,31.8,29.1,75,77,73,0.418,24.0,24.5,22.8,0.877,0.7,58,23,1.7,-0.00018,-0.00026,.,38.1,26,0,0,35.5,12.63,0.00,0.00
15min,AgWx,beryljct,423,16MAR2019:01:00:00,28.4,12.89,30.7,30.0,28.8,30.1,28.0,78,80,76,0.427,22.9,23.6,22.4,5.196,2.9,58,15,6.5,-0.00007,-0.00008,.,38.1,26,0,0,35.6,12.63,0.00,0.00
15min,AgWx,beryljct,423,16MAR2019:01:15:00,28.5,12.89,31.3,30.7,30.5,30.8,30.1,74,76,73,0.422,23.3,23.5,23.0,4.604,4.9,60,4.0,6.2,-0.00000,0.00001,.,38.1,26,0,0,35.6,12.63,0.00,0.00
15min,AgWx,beryljct,423,16MAR2019:01:30:00,28.6,12.87,29.8,29.2,30.2,30.7,29.2,73,74,72,0.405,22.5,23.0,21.9,2.718,3.5,56,5.7,4.7,-0.00004,-0.00003,.,38.1,25,0,0,35.4,12.63,0.00,0.00
15min,AgWx,beryljct,423,16MAR2019:01:45:00,28.3,12.87,30.1,28.0,28.2,29.2,27.7,76,78,74,0.402,21.7,22.1,21.2,1.907,1.9,359,39,3.4,-0.00010,-0.00013,.,38.1,26,0,0,35.4,12.63,0.00,0.00
15min,AgWx,beryljct,423,16MAR2019:02:00:00,27.8,12.85,29.3,28.9,28.7,29.1,28.0,75,78,73,0.392,21.7,22.2,21.3,0.482,1.2,357,13,2.5,-0.00014,-0.00018,.,38.1,26,0,0,35.8,12.63,0.00,0.00
15min,AgWx,beryljct,423,16MAR2019:02:15:00,27.2,12.85,28.5,27.6,27.6,28.9,26.8,76,78,73,0.393,20.9,21.4,20.6,0.132,0.6,28,2.8,1.6,-0.00018,-0.00026,.,38.0,25,0,0,35.5,12.63,0.00,0.00
15min,AgWx,beryljct,423,16MAR2019:02:30:00,26.7,12.83,28.6,28.2,28.0,28.5,27.5,76,77,75,0.398,21.5,22.1,20.8,2.696,0.5,98,42,2.7,-0.00019,-0.00028,.,38.0,26,0,0,35.7,12.63,0.00,0.00
15min,AgWx,beryljct,423,16MAR2019:02:45:00,26.6,12.83,30.2,29.7,28.9,29.8,28.0,76,78,74,0.413,22.3,22.8,21.5,3.749,2.8,164,19,4.1,-0.00007,-0.00008,.,38.0,26,0,0,35.9,12.63,0.00,0.00
15min,AgWx,beryljct,423,16MAR2019:03:00:00,27.1,12.82,30.0,29.8,29.6,29.9,29.2,75,76,74,0.416,22.7,23.2,22.3,3.727,3.9,124,14,5.0,-0.00004,-0.00003,.,38.0,26,0,0,35.4,12.63,0.00,0.00
15min,AgWx,beryljct,423,16MAR2019:03:15:00,27.5,12.81,30.0,29.2,29.4,29.8,29.0,76,77,74,0.422,22.8,23.0,22.6,3.814,3.8,121,8.9,5.4,-0.00004,-0.00004,.,37.9,26,0,0,35.4,12.63,0.00,0.00
15min,AgWx,beryljct,423,16MAR2019:03:30:00,27.8,12.79,29.4,29.4,29.2,29.4,28.9,77,77,76,0.419,22.8,23.1,22.5,3.814,4.6,106,13,6.1,-0.00002,-0.00002,.,37.9,25,0,0,35.5,12.63,0.00,0.00
15min,AgWx,beryljct,423,16MAR2019:03:45:00,28.1,12.8,29.3,29.4,29.5,30.0,29.1,76,77,75,0.417,23.0,23.3,22.6,4.384,5.5,77,7.1,7.7,-0.00000,0.00001,.,37.9,26,0,0,35.6,12.63,0.00,0.00
15min,AgWx,beryljct,423,16MAR2019:04:00:00,28.3,12.8,29.2,29.1,28.9,29.3,28.7,77,78,76,0.417,22.7,23.1,22.5,4.056,4.6,73,5.0,5.9,-0.00003,-0.00002,.,37.9,26,0,0,35.6,12.63,0.00,0.00
15min,AgWx,beryljct,423,16MAR2019:04:15:00,28.3,12.77,29.1,28.7,28.8,29.1,28.6,78,78,77,0.417,22.8,23.0,22.5,5.765,5.4,74,5.0,7.3,-0.00001,-0.00000,.,37.9,25,0,0,35.5,12.63,0.00,0.00
15min,AgWx,beryljct,423,16MAR2019:04:30:00,28.2,12.75,28.2,27.9,28.3,28.8,27.9,79,80,78,0.413,22.7,22.9,22.4,4.362,5.1,70,4.3,6.1,-0.00002,-0.00001,.,37.9,26,0,0,35.7,12.63,0.00,0.00
15min,AgWx,beryljct,423,16MAR2019:04:45:00,27.9,12.76,27.6,26.9,27.4,27.9,26.9,81,81,80,0.403,22.3,22.6,21.9,3.639,4.3,69,2.8,6.1,-0.00004,-0.00004,.,37.8,26,0,0,35.5,12.63,0.00,0.00
15min,AgWx,beryljct,423,16MAR2019:05:00:00,27.2,12.75,27.3,26.7,26.6,26.9,26.2,82,82,81,0.400,21.7,22.0,21.3,1.491,2.2,38,15,3.8,-0.00010,-0.00012,.,37.8,26,0,0,35.5,12.64,0.00,0.00
15min,AgWx,beryljct,423,16MAR2019:05:15:00,26.6,12.74,27.1,26.7,26.6,27.2,25.8,81,83,80,0.399,21.6,22.3,20.6,2.609,3.1,346,20,4.5,-0.00007,-0.00008,.,37.8,26,0,0,35.5,12.63,0.00,0.00
15min,AgWx,beryljct,423,16MAR2019:05:30:00,26.2,12.73,25.5,25.0,25.4,26.7,24.5,83,85,81,0.387,20.9,21.7,20.0,3.332,3.2,326,19,4.2,-0.00007,-0.00008,.,37.8,26,0,0,35.7,12.64,0.00,0.00
15min,AgWx,beryljct,423,16MAR2019:05:45:00,25.7,12.61,24.2,23.7,24.6,25.5,23.6,84,85,83,0.369,20.4,21.4,19.6,3.529,3.8,317,11,5.2,-0.00006,-0.00006,.,37.8,26,0,0,35.6,12.64,0.00,0.00
15min,AgWx,beryljct,423,16MAR2019:06:00:00,25.1,12.58,24.8,24.1,23.8,24.3,23.3,86,87,85,0.377,20.2,20.8,19.4,4.077,3.6,301,6.2,4.6,-0.00007,-0.00007,.,37.7,26,0,0,35.7,12.63,0.00,0.00
15min,AgWx,beryljct,423,16MAR2019:06:15:00,24.7,12.56,25.3,25.4,24.7,25.5,24.1,85,86,84,0.394,20.8,21.8,20.3,2.499,3.6,306,8.8,5.4,-0.00007,-0.00007,.,37.7,26,0,0,35.7,12.64,0.00,0.00
15min,AgWx,beryljct,423,16MAR2019:06:30:00,24.5,12.57,24.7,24.0,24.8,25.3,23.9,84,85,83,0.368,20.6,21.2,19.5,4.713,3.7,321,11,5.0,-0.00006,-0.00007,.,37.7,26,0,0,35.6,12.64,0.00,0.00
15min,AgWx,beryljct,423,16MAR2019:06:45:00,24.2,12.54,23.3,22.1,22.7,24.1,21.7,86,88,84,0.356,19.0,20.2,18.3,4.538,4.1,333,7.7,5.5,-0.00005,-0.00006,.,37.7,26,0,0,35.5,12.64,0.00,0.00
15min,AgWx,beryljct,423,16MAR2019:07:00:00,23.8,12.55,23.0,22.0,21.9,22.4,21.5,88,89,87,0.357,18.9,19.6,18.4,4.757,4.5,329,6.4,5.8,0.00007,0.00011,.,37.6,26,0,0,35.5,12.64,0.00,0.00
15min,AgWx,beryljct,423,16MAR2019:07:15:00,23.4,12.54,22.7,21.9,22.1,22.5,21.9,88,89,87,0.351,19.1,19.6,18.7,3.749,5.0,324,6.2,6.2,0.00007,0.00012,.,37.6,26,0,0,35.4,12.64,0.00,0.00
15min,AgWx,beryljct,423,16MAR2019:07:30:00,23.0,12.53,22.5,21.8,21.8,22.0,21.5,88,89,87,0.356,18.7,19.1,18.4,3.836,3.4,314,9.6,4.0,0.00005,0.00009,.,37.6,26,0,0,35.7,12.64,0.00,0.00
15min,AgWx,beryljct,423,16MAR2019:07:45:00,22.6,12.53,23.2,22.5,21.8,22.6,21.0,89,90,88,0.367,19.0,19.9,18.1,3.661,3.9,309,2.8,4.7,0.00006,0.00010,.,37.6,25,3,0,35.7,12.64,0.00,0.00
15min,AgWx,beryljct,423,16MAR2019:08:00:00,22.7,12.69,25.4,24.1,23.4,24.2,22.5,88,89,87,0.386,20.4,20.9,19.8,4.165,4.3,302,3.6,5.2,0.00011,0.00016,.,37.5,25,18,0,35.8,12.63,0.00,0.00
15min,AgWx,beryljct,423,16MAR2019:08:15:00,23.2,12.8,25.9,25.7,24.9,25.7,24.2,87,87,85,0.402,21.5,22.1,20.8,3.661,3.8,310,11,4.6,0.00025,0.00031,.,37.5,26,63,0,35.9,12.64,0.00,0.00
15min,AgWx,beryljct,423,16MAR2019:08:30:00,24.5,12.89,26.6,26.0,25.8,26.1,25.6,86,86,85,0.412,22.1,22.5,21.8,3.814,4.0,334,11,5.1,0.00036,0.00043,.,37.5,25,106,0,36.0,12.63,0.00,0.00
15min,AgWx,beryljct,423,16MAR2019:08:45:00,26.1,13.01,27.7,27.0,26.4,27.0,26.0,86,87,86,0.430,22.9,23.5,22.4,3.179,3.3,345,8.6,4.6,0.00048,0.00055,.,37.5,26,153,0,38.7,12.63,0.00,0.00
15min,AgWx,beryljct,423,16MAR2019:09:00:00,27.9,13.28,28.4,27.8,27.5,27.9,27.0,85,86,83,0.428,23.6,23.9,23.3,2.389,3.5,354,14,4.5,0.00063,0.00072,.,37.4,26,203,0,42.1,12.63,0.00,0.00
15min,AgWx,beryljct,423,16MAR2019:09:15:00,29.6,13.62,29.6,28.9,28.4,28.9,27.8,83,84,81,0.439,23.9,24.2,23.5,2.389,2.2,9.6,16,4.3,0.00083,0.00092,.,37.4,26,254,0,47.3,12.63,0.00,0.00
15min,AgWx,beryljct,423,16MAR2019:09:30:00,31.5,14.64,31.2,30.7,29.8,30.7,28.9,81,82,79,0.459,24.5,25.2,23.8,6.423,3.3,358,29,6.4,0.00101,0.00114,.,37.4,26,307,0,50.0,12.63,0.00,0.00
15min,AgWx,beryljct,423,16MAR2019:09:45:00,33.0,14.74,32.5,31.9,31.3,31.9,30.7,79,80,78,0.477,25.4,26.1,24.9,3.354,4.7,23,14,7.9,0.00120,0.00137,.,37.4,26,360,0,49.5,12.63,0.00,0.00
15min,AgWx,beryljct,423,16MAR2019:10:00:00,34.5,14.73,34.5,34.0,33.2,34.0,31.9,76,79,73,0.485,26.3,27.2,25.7,6.533,6.4,27,12,9.6,0.00140,0.00164,.,37.4,26,412,0,51.3,12.63,0.00,0.00
15min,AgWx,beryljct,423,16MAR2019:10:15:00,36.2,14.66,35.3,34.6,34.6,35.2,34.0,72,75,68,0.464,26.5,27.6,25.3,11.05,8.2,36,14,11.3,0.00161,0.00192,.,37.4,26,463,0,51.7,12.63,0.00,0.00
15min,AgWx,beryljct,423,16MAR2019:10:30:00,37.7,14.62,36.6,36.0,35.5,36.0,34.7,68,72,66,0.480,26.1,27.5,25.3,8.4,9.0,34,11,12.2,0.00181,0.00218,.,37.3,26,510,0,52.4,12.63,0.01,0.00
15min,AgWx,beryljct,423,16MAR2019:10:45:00,39.2,14.64,37.3,37.3,36.8,37.7,36.0,66,68,62,0.466,26.4,27.7,25.3,12.06,8.7,38,11,13.0,0.00205,0.00246,.,37.3,26,556,0,54.6,12.63,0.00,0.00
15min,AgWx,beryljct,423,16MAR2019:11:00:00,40.6,14.58,38.5,38.1,37.8,38.2,37.2,61,64,59,0.471,25.7,26.5,24.8,12.39,11.2,32,9.0,15.3,0.00223,0.00276,.,37.3,26,599,0,54.3,12.63,0.00,0.00
15min,AgWx,beryljct,423,16MAR2019:11:15:00,41.7,14.56,40.0,39.2,38.7,39.3,37.7,60,63,59,0.476,26.1,27.4,24.7,9.67,10.7,44,12,13.7,0.00243,0.00298,.,37.3,25,640,0,55.7,12.63,0.00,0.00
15min,AgWx,beryljct,423,16MAR2019:11:30:00,42.7,14.55,39.8,39.3,39.4,39.7,39.0,59,62,58,0.475,26.2,27.5,25.4,9.43,10.1,50,16,14.8,0.00262,0.00318,.,37.2,26,678,0,57.2,12.63,0.00,0.00
15min,AgWx,beryljct,423,16MAR2019:11:45:00,43.6,14.59,42.1,41.0,40.1,41.0,39.3,58,61,55,0.523,26.6,28.2,25.1,8.86,10.3,53,14,13.7,0.00277,0.00337,.,37.2,26,712,0,57.9,12.62,0.00,0.00
15min,AgWx,beryljct,423,16MAR2019:12:00:00,44.4,14.12,42.3,41.4,41.0,41.7,40.5,58,61,56,0.507,27.2,29.1,26.1,9.84,10.6,54,11,15.0,0.00293,0.00356,.,37.2,26,743,0,59.0,12.62,0.00,0.00
15min,AgWx,beryljct,423,16MAR2019:12:15:00,45.2,14.12,41.6,42.4,42.1,43.0,41.4,55,58,52,0.494,27.3,28.7,25.7,11.95,10.9,48,15,16.3,0.00311,0.00380,.,37.2,26,770,0,59.7,12.62,0.00,0.00
15min,AgWx,beryljct,423,16MAR2019:12:30:00,46.1,14.09,43.8,43.3,42.8,43.7,42.1,56,59,53,0.519,27.9,30.4,26.3,11.4,10.1,50,12,14.9,0.00326,0.00394,.,37.1,26,793,0,60.6,12.62,0.00,0.00
15min,AgWx,beryljct,423,16MAR2019:12:45:00,47.1,14.07,44.7,44.0,43.5,44.5,43.0,54,56,52,0.525,27.8,29.6,26.5,7.804,9.0,42,16,13.6,0.00343,0.00411,.,37.1,26,813,0,61.9,12.62,0.00,0.00
15min,AgWx,beryljct,423,16MAR2019:13:00:00,48.2,14.16,44.4,45.7,44.5,46.0,43.5,52,56,49,0.508,28.0,30.1,26.1,9.78,9.1,43,14,16.5,0.00358,0.00431,.,37.1,26,829,0,62.9,12.61,0.00,0.00
15min,AgWx,beryljct,423,16MAR2019:13:15:00,49.1,14.04,47.3,45.2,45.2,45.8,44.7,47,51,44,0.483,26.4,28.4,24.1,7.563,10.1,48,14,14.9,0.00372,0.00455,.,37.1,26,840,0,62.3,12.62,0.00,0.00
15min,AgWx,beryljct,423,16MAR2019:13:30:00,49.8,14.12,46.4,46.2,46.0,47.1,45.1,44,50,37,0.475,25.1,29.3,20.4,7.629,10.3,48,13,14.7,0.00388,0.00478,.,37.1,26,849,0,62.5,12.61,0.00,0.00
15min,AgWx,beryljct,423,16MAR2019:13:45:00,50.4,14.13,47.0,46.9,46.6,47.9,45.9,42,49,33,0.464,24.9,29.4,18.4,9.69,10.1,52,15,14.8,0.00396,0.00488,.,37.0,26,853,0,62.7,12.61,0.00,0.00
15min,AgWx,beryljct,423,16MAR2019:14:00:00,51.1,13.99,47.0,47.4,47.4,48.4,46.9,44,50,39,0.447,26.3,30.4,23.5,7.717,9.7,43,15,13.4,0.00400,0.00491,.,37.0,26,851,0,63.3,12.61,0.00,0.00
15min,AgWx,beryljct,423,16MAR2019:14:15:00,51.9,14.07,47.4,48.1,47.7,48.4,47.3,42,47,38,0.465,25.7,28.7,23.3,7.453,9.1,55,14,14.1,0.00404,0.00495,.,37.0,26,845,0,63.3,12.61,0.00,0.00
15min,AgWx,beryljct,423,16MAR2019:14:30:00,52.7,13.98,48.3,49.0,48.4,49.0,47.8,41,47,38,0.552,26.0,29.5,23.2,10.3,8.7,50,15,12.6,0.00407,0.00497,.,37.0,25,836,0,63.5,12.60,0.00,0.00
15min,AgWx,beryljct,423,16MAR2019:14:45:00,53.5,13.93,51.3,49.9,49.0,49.9,48.6,41,47,37,0.543,26.5,29.4,23.6,10.28,10.1,45,14,14.1,0.00404,0.00502,.,37.0,26,821,0,62.6,12.60,0.00,0.00
15min,AgWx,beryljct,423,16MAR2019:15:00:00,54.3,13.93,50.0,50.2,49.6,50.5,49.0,40,46,37,0.493,26.5,30.2,23.8,10.85,9.6,49,9.4,14.0,0.00403,0.00501,.,37.1,26,804,0,62.5,12.60,0.00,0.00
15min,AgWx,beryljct,423,16MAR2019:15:15:00,55.0,13.96,51.4,50.6,50.3,51.3,49.6,40,45,36,0.453,27.2,30.0,24.0,10.06,10.0,43,15,14.3,0.00399,0.00499,.,37.1,26,781,0,61.9,12.60,0.00,0.00
15min,AgWx,beryljct,423,16MAR2019:15:30:00,55.7,13.87,50.9,50.6,50.8,51.7,50.2,38,41,35,0.504,25.9,28.6,23.5,9.4,9.6,38,16,16.0,0.00397,0.00500,.,37.2,26,757,0,62.0,12.60,0.00,0.00
15min,AgWx,beryljct,423,16MAR2019:15:45:00,56.2,13.88,51.1,51.2,50.8,51.5,50.3,37,43,34,0.472,25.5,29.5,22.8,8.79,10.4,55,10,15.1,0.00385,0.00493,.,37.2,26,723,0,60.5,12.60,0.00,0.00
15min,AgWx,beryljct,423,16MAR2019:16:00:00,56.5,13.85,51.0,51.8,51.7,52.3,51.0,35,40,29,0.469,24.8,28.4,20.3,13.07,10.4,52,23,13.1,0.00369,0.00480,.,37.3,26,667,0,59.7,12.59,0.00,0.00
15min,AgWx,beryljct,423,16MAR2019:16:15:00,56.9,13.83,50.8,51.8,51.8,52.2,51.4,36,40,32,0.469,25.7,28.2,22.9,9.08,10.3,52,13,15.3,0.00366,0.00476,.,37.3,26,661,0,59.2,12.59,0.00,0.00
15min,AgWx,beryljct,423,16MAR2019:16:30:00,57.2,13.9,53.0,52.8,52.2,52.8,51.5,37,44,33,0.550,26.7,31.3,23.4,9.86,10.1,47,12,16.4,0.00344,0.00451,.,37.4,26,612,0,58.5,12.59,0.00,0.00
15min,AgWx,beryljct,423,16MAR2019:16:45:00,57.5,13.84,52.5,52.2,52.4,53.1,51.9,38,42,35,0.477,27.8,30.4,25.5,13.02,10.3,46,16,15.5,0.00330,0.00435,.,37.5,26,581,0,57.7,12.59,0.00,0.00
15min,AgWx,beryljct,423,16MAR2019:17:00:00,57.6,13.85,52.1,52.6,52.3,52.6,52.0,37,41,35,0.494,26.9,29.2,25.0,13.09,11.0,56,13,15.5,0.00316,0.00427,.,37.6,26,539,0,56.4,12.59,0.00,0.00
15min,AgWx,beryljct,423,16MAR2019:17:15:00,57.6,13.87,53.8,52.7,52.7,53.3,52.3,37,42,34,0.535,27.0,30.4,24.9,7.103,10.7,46,13,13.9,0.00298,0.00407,.,37.7,26,493,0,56.0,12.59,0.00,0.00
15min,AgWx,beryljct,423,16MAR2019:17:30:00,57.6,13.9,52.5,52.6,52.8,53.3,52.5,37,40,34,0.490,27.2,29.6,25.1,10.7,10.8,51,12,15.0,0.00277,0.00385,.,37.7,26,445,0,55.3,12.59,0.00,0.00
15min,AgWx,beryljct,423,16MAR2019:17:45:00,57.4,13.86,53.1,52.7,52.7,53.0,52.5,35,41,30,0.522,25.9,30.0,22.3,10.52,10.4,47,15,14.4,0.00256,0.00363,.,37.8,26,395,0,54.9,12.59,0.00,0.00
15min,AgWx,beryljct,423,16MAR2019:18:00:00,57.2,13.84,52.7,52.5,52.7,53.0,52.4,37,40,34,0.476,26.8,29.1,24.7,12.32,11.3,47,11,16.2,0.00236,0.00344,.,37.9,26,344,0,54.7,12.59,0.00,0.00
15min,AgWx,beryljct,423,16MAR2019:18:15:00,56.7,13.88,52.5,52.2,52.4,52.7,52.2,37,41,33,0.528,27.1,29.5,24.2,10.3,10.8,46,7.9,13.9,0.00208,0.00311,.,38.0,26,292,0,54.2,12.59,0.00,0.00
15min,AgWx,beryljct,423,16MAR2019:18:30:00,56.1,13.89,51.9,51.6,51.9,52.2,51.6,41,44,38,0.513,28.7,30.6,26.8,11.38,11.1,52,9.9,14.6,0.00180,0.00277,.,38.1,25,240,0,53.6,12.59,0.00,0.00
15min,AgWx,beryljct,423,16MAR2019:18:45:00,55.3,13.87,51.1,50.9,51.2,51.6,50.7,39,41,38,0.494,27.1,28.6,26.2,11.38,12.0,51,9.2,16.3,0.00077,0.00090,.,38.1,26,191,0,52.7,12.59,0.00,0.00
15min,AgWx,beryljct,423,16MAR2019:19:00:00,54.2,13.95,50.4,50.1,50.4,50.9,49.7,39,42,37,0.464,26.6,27.7,25.3,11.22,10.6,55,7.6,14.1,0.00067,0.00080,.,38.2,26,143,0,51.3,12.60,0.00,0.00
15min,AgWx,beryljct,423,16MAR2019:19:15:00,53.0,13.42,49.4,48.8,49.3,50.1,48.6,41,44,38,0.490,26.7,27.7,25.5,10.7,9.8,53,6.9,12.2,0.00056,0.00068,.,38.3,26,98,0,49.0,12.60,0.00,0.00
15min,AgWx,beryljct,423,16MAR2019:19:30:00,51.5,13.2,47.4,47.4,48.1,48.9,47.4,43,45,41,0.488,26.7,27.2,26.1,11.42,10.4,54,6.2,14.6,0.00048,0.00059,.,38.4,26,52,0,47.7,12.60,0.00,0.00
15min,AgWx,beryljct,423,16MAR2019:19:45:00,49.7,13.14,46.1,45.9,46.6,47.4,45.9,45,46,44,0.474,26.4,26.9,25.4,11.36,11.3,58,6.3,14.4,0.00042,0.00051,.,38.5,25,8,0,45.7,12.60,0.00,0.00
15min,AgWx,beryljct,423,16MAR2019:20:00:00,48.0,13.11,44.6,44.6,45.2,45.9,44.5,45,46,44,0.452,25.1,25.9,24.5,9.89,11.5,63,7.4,14.6,0.00040,0.00048,.,38.6,26,2,0,44.2,12.60,0.00,0.00
15min,AgWx,beryljct,423,16MAR2019:20:15:00,46.5,13.1,44.2,43.5,43.9,44.7,43.5,49,52,45,0.492,26.1,27.0,24.9,10.35,10.2,67,8.1,13.5,0.00032,0.00039,.,38.6,26,0,0,42.9,12.61,0.00,0.00
15min,AgWx,beryljct,423,16MAR2019:20:30:00,45.2,13.08,43.2,43.0,43.2,43.6,42.8,53,55,51,0.514,27.2,27.8,26.5,9.56,9.5,73,6.4,11.9,0.00027,0.00033,.,38.7,26,0,0,42.1,12.61,0.00,0.00
15min,AgWx,beryljct,423,16MAR2019:20:45:00,44.2,13.07,42.9,42.4,42.6,43.1,42.2,56,57,54,0.516,27.9,28.2,27.7,9.43,9.2,72,8.0,12.3,0.00023,0.00029,.,38.8,26,0,0,41.5,12.61,0.00,0.00
15min,AgWx,beryljct,423,16MAR2019:21:00:00,43.4,13.05,42.4,41.7,42.0,42.4,41.7,56,57,55,0.504,27.5,27.8,27.0,10,8.2,75,7.0,11.2,0.00020,0.00026,.,38.8,25,0,0,40.8,12.61,0.00,0.00
15min,AgWx,beryljct,423,16MAR2019:21:15:00,42.6,13.05,41.4,41.0,41.3,41.9,40.9,57,58,56,0.499,27.2,27.5,26.9,5.546,6.6,73,7.6,9.3,0.00015,0.00020,.,38.9,26,0,0,39.9,12.61,0.00,0.00
15min,AgWx,beryljct,423,16MAR2019:21:30:00,41.8,13.04,41.3,40.3,40.7,41.0,40.3,57,58,56,0.487,26.7,27.0,26.3,7.41,6.1,69,8.4,8.3,0.00013,0.00018,.,39.0,25,0,0,39.2,12.61,0.00,0.00
15min,AgWx,beryljct,423,16MAR2019:21:45:00,40.9,13.03,40.3,39.4,39.7,40.3,39.2,58,58,57,0.467,25.9,26.4,25.4,4.911,5.4,62,8.0,6.8,0.00010,0.00014,.,39.0,26,0,0,38.2,12.61,0.00,0.00
15min,AgWx,beryljct,423,16MAR2019:22:00:00,40.1,13.02,38.4,38.3,38.9,39.5,38.3,58,60,57,0.467,25.4,25.6,25.1,1.732,4.4,70,11,6.8,0.00006,0.00009,.,39.0,26,0,0,37.1,12.61,0.00,0.00
15min,AgWx,beryljct,423,16MAR2019:22:15:00,38.9,13,38.9,38.4,37.7,38.4,36.7,61,63,59,0.472,25.4,26.1,24.9,1.973,2.4,163,29,3.8,-0.00006,-0.00006,.,39.1,26,0,0,35.5,12.61,0.00,0.00
15min,AgWx,beryljct,423,16MAR2019:22:30:00,38.1,13.01,37.7,37.9,38.2,38.7,37.7,61,63,60,0.485,26.0,26.6,25.3,5.459,3.7,157,13,5.9,0.00001,0.00003,.,39.1,26,0,0,35.9,12.62,0.00,0.00
15min,AgWx,beryljct,423,16MAR2019:22:45:00,37.7,13,37.3,37.5,37.5,37.8,37.2,65,66,63,0.495,26.8,27.3,26.2,4.757,4.9,141,6.3,6.0,0.00004,0.00007,.,39.1,26,0,0,35.8,12.62,0.00,0.00
15min,AgWx,beryljct,423,16MAR2019:23:00:00,37.3,12.99,37.1,37.2,37.4,37.7,37.0,65,66,64,0.491,26.7,27.1,26.4,4.45,4.2,158,14,5.2,0.00001,0.00003,.,39.2,26,0,0,35.3,12.62,0.00,0.00
15min,AgWx,beryljct,423,16MAR2019:23:15:00,36.8,12.97,38.8,38.0,37.5,38.2,36.9,65,66,63,0.491,26.7,27.1,26.4,3.223,3.3,160,17,4.8,-0.00002,-0.00001,.,39.2,26,0,0,35.5,12.62,0.00,0.00
15min,AgWx,beryljct,423,16MAR2019:23:30:00,36.5,12.97,37.1,36.6,38.0,38.5,36.6,63,65,62,0.475,26.7,27.1,25.8,0,1.7,112,8.8,4.9,-0.00011,-0.00014,.,39.2,26,0,0,35.4,12.62,0.00,0.00
15min,AgWx,beryljct,423,16MAR2019:23:45:00,35.8,12.97,37.5,37.2,37.0,37.6,36.3,65,67,64,0.487,26.4,26.7,26.0,1.206,0.9,113,7.9,2.1,-0.00019,-0.00026,.,39.2,25,0,0,35.6,12.63,0.00,0.00
15min,AgWx,beryljct,423,17MAR2019:00:00:00,35.1,12.96,37.4,36.8,36.7,37.4,36.3,65,66,64,0.479,26.1,26.5,25.7,0,0.4,104,33,2.9,-0.00023,-0.00034,.,39.2,26,0,0,35.5,12.62,0.00,0.00
15min,AgWx,beryljct,423,17MAR2019:00:15:00,34.6,12.95,36.1,36.2,36.9,37.1,36.2,64,65,64,0.467,26.0,26.2,25.4,0,0.3,3.3,0.6,1.4,-0.00025,-0.00038,.,39.2,25,0,0,35.4,12.62,0.00,0.00
15min,AgWx,beryljct,423,17MAR2019:00:30:00,34.1,12.93,36.3,36.2,35.8,36.6,34.3,66,70,65,0.468,25.6,26.1,24.7,0,0.2,340,10,1.4,-0.00025,-0.00038,.,39.2,26,0,0,35.6,12.62,0.00,0.00
15min,AgWx,bigpiney,439,16MAR2019:00:00:00,16.0,12.78,9.6,9.8,11.8,13.5,9.8,79,82,77,0.193,6.6,7.7,5.2,2.938,3.6,214,10,5.8,-0.00003,-0.00003,30.6,31.0,9,0,0,0.0,0.32,0.00,0.00
15min,AgWx,bigpiney,439,16MAR2019:00:15:00,15.5,12.77,9.9,9.2,9.5,10.1,9.1,83,84,82,0.191,5.3,6.2,4.9,4.867,3.8,207,8.7,5.7,-0.00003,-0.00004,30.6,31.0,9,0,0,0.0,0.32,0.00,0.00
15min,AgWx,bigpiney,439,16MAR2019:00:30:00,14.9,12.76,10.2,9.8,9.6,9.9,9.1,83,84,83,0.197,5.5,5.7,5.0,3.091,3.7,212,6.0,5.3,-0.00004,-0.00004,30.6,31.0,9,0,0,0.0,0.32,0.00,0.00
15min,AgWx,bigpiney,439,16MAR2019:00:45:00,14.4,12.75,10.2,9.8,10.2,10.6,9.6,82,83,81,0.196,5.7,6.1,5.4,0,1.2,251,15,3.3,-0.00009,-0.00011,30.6,31.0,9,0,0,0.0,0.32,0.00,0.00
15min,AgWx,bigpiney,439,16MAR2019:01:00:00,13.8,12.74,10.9,10.4,10.0,10.4,9.7,83,84,81,0.199,6.0,6.4,5.5,0.636,0.1,244,8.8,1.3,-0.00013,-0.00021,30.6,31.0,9,0,0,0.0,0.32,0.00,0.00
15min,AgWx,bigpiney,439,16MAR2019:01:15:00,13.4,12.73,10.7,10.1,10.4,10.9,9.9,82,84,81,0.202,5.9,6.3,5.6,0,0.3,287,10,1.1,-0.00013,-0.00019,30.6,31.0,9,0,0,0.0,0.32,0.00,0.00
15min,AgWx,bigpiney,439,16MAR2019:01:30:00,12.9,12.73,10.3,9.8,10.2,10.5,9.8,82,84,80,0.195,5.7,6.3,5.2,0,0.3,335,21,0.9,-0.00012,-0.00018,30.6,31.0,9,0,0,0.0,0.32,0.00,0.00
15min,AgWx,bigpiney,439,16MAR2019:01:45:00,12.6,12.71,8.6,8.6,9.4,9.9,8.6,83,83,82,0.188,5.2,5.7,4.6,1.6,1.1,304,14,2.3,-0.00009,-0.00012,30.7,31.0,9,0,0,0.0,0.32,0.00,0.00
15min,AgWx,bigpiney,439,16MAR2019:02:00:00,12.2,12.7,8.8,8.7,8.7,9.1,8.4,84,85,83,0.191,4.7,5.2,4.4,0.636,1.1,266,20,1.8,-0.00009,-0.00011,30.7,30.9,9,0,0,0.0,0.32,0.00,0.00
15min,AgWx,bigpiney,439,16MAR2019:02:15:00,11.9,12.68,10.2,9.6,9.3,9.7,8.4,84,85,82,0.193,5.4,5.9,4.6,0,0.2,322,27,1.3,-0.00012,-0.00019,30.7,31.0,9,0,0,0.0,0.32,0.00,0.00
15min,AgWx,bigpiney,439,16MAR2019:02:30:00,11.6,12.69,9.3,8.9,9.0,10.2,8.1,82,84,81,0.190,4.7,5.8,3.8,1.644,1.5,215,7.5,3.0,-0.00008,-0.00010,30.7,31.0,9,0,0,0.0,0.32,0.00,0.00
15min,AgWx,bigpiney,439,16MAR2019:02:45:00,11.3,12.66,8.2,7.9,9.0,10.3,7.9,82,83,80,0.179,4.6,5.7,3.6,0,0.8,234,13,2.1,-0.00010,-0.00014,30.7,31.0,9,0,0,0.0,0.32,0.00,0.00
15min,AgWx,bigpiney,439,16MAR2019:03:00:00,11.0,12.66,7.1,7.1,8.0,8.5,7.1,84,85,82,0.177,4.2,4.7,3.3,1.776,0.8,92,23,1.9,-0.00009,-0.00013,30.7,31.0,9,0,0,0.0,0.32,0.00,0.00
15min,AgWx,bigpiney,439,16MAR2019:03:15:00,10.7,12.66,7.7,7.1,6.6,7.1,6.1,85,86,84,0.179,3.1,3.7,2.5,1.381,1.5,93,14,2.3,-0.00007,-0.00009,30.7,31.0,9,0,0,0.0,0.32,0.00,0.00
15min,AgWx,bigpiney,439,16MAR2019:03:30:00,10.3,12.64,6.3,6.0,7.0,7.5,6.0,84,85,84,0.169,3.3,3.9,2.3,0.986,0.7,340,32,1.4,-0.00009,-0.00013,30.7,31.0,9,0,0,0.0,0.32,0.00,0.00
15min,AgWx,bigpiney,439,16MAR2019:03:45:00,9.9,12.63,7.9,7.1,6.5,7.1,5.9,86,86,85,0.181,3.2,3.8,2.4,0,0.6,299,20,2.1,-0.00010,-0.00014,30.7,31.0,9,0,0,0.0,0.32,0.00,0.00
15min,AgWx,bigpiney,439,16MAR2019:04:00:00,9.6,12.62,5.8,5.5,6.6,7.3,5.5,86,87,85,0.167,3.2,4.2,2.0,1.206,0.8,236,19,2.1,-0.00009,-0.00012,30.7,30.9,9,0,0,0.0,0.32,0.00,0.00
15min,AgWx,bigpiney,439,16MAR2019:04:15:00,9.2,12.61,6.2,5.4,4.9,5.6,4.5,86,87,84,0.169,1.5,2.4,1.0,1.381,2.6,229,13,4.2,-0.00005,-0.00006,30.7,31.0,9,0,0,0.0,0.32,0.00,0.00
15min,AgWx,bigpiney,439,16MAR2019:04:30:00,8.9,12.6,6.4,5.8,5.7,5.9,5.5,85,87,84,0.166,2.2,2.5,1.8,1.491,0.9,239,6.0,2.3,-0.00008,-0.00011,30.7,31.0,9,0,0,0.0,0.32,0.00,0.00
15min,AgWx,bigpiney,439,16MAR2019:04:45:00,8.7,12.59,4.5,4.3,5.4,6.3,4.3,83,84,83,0.156,1.4,2.4,0.6,2.105,1.2,335,50,2.4,-0.00007,-0.00010,30.7,30.9,9,0,0,0.0,0.32,0.00,0.00
15min,AgWx,bigpiney,439,16MAR2019:05:00:00,8.4,12.58,4.6,4.0,3.9,4.3,3.6,86,87,84,0.159,0.6,1.1,0.4,1.074,1.0,318,43,2.2,-0.00008,-0.00010,30.7,30.9,9,0,0,0.0,0.32,0.00,0.00
15min,AgWx,bigpiney,439,16MAR2019:05:15:00,8.1,12.58,4.7,4.0,3.8,4.0,3.6,86,87,86,0.157,0.6,1.0,0.3,1.381,1.0,222,7.8,1.6,-0.00008,-0.00010,30.7,31.0,9,0,0,0.0,0.32,0.00,0.00
15min,AgWx,bigpiney,439,16MAR2019:05:30:00,7.7,12.57,5.0,4.8,4.4,5.1,3.9,86,87,85,0.163,1.1,2.0,0.4,0,0.4,220,3.1,2.3,-0.00009,-0.00014,30.7,31.0,9,0,0,0.0,0.32,0.00,0.00
15min,AgWx,bigpiney,439,16MAR2019:05:45:00,7.5,12.55,3.4,3.0,4.5,5.4,3.0,86,87,85,0.150,1.1,2.3,-0.3,1.951,1.4,352,9.1,2.3,-0.00007,-0.00009,30.7,31.0,9,0,0,0.0,0.32,0.00,0.00
15min,AgWx,bigpiney,439,16MAR2019:06:00:00,7.2,12.55,4.2,3.7,3.4,3.9,2.9,87,88,86,0.157,0.4,1.1,-0.4,0.373,0.8,336,14,2.1,-0.00008,-0.00011,30.7,31.0,9,0,0,0.0,0.32,0.00,0.00
15min,AgWx,bigpiney,439,16MAR2019:06:15:00,6.9,12.54,4.3,3.9,4.0,4.3,3.6,88,88,87,0.159,1.1,1.5,0.6,0.855,0.4,334,16,1.6,-0.00009,-0.00014,30.7,31.0,9,0,0,0.0,0.32,0.00,0.00
15min,AgWx,bigpiney,439,16MAR2019:06:30:00,6.7,12.54,4.2,3.7,3.9,4.1,3.7,88,88,87,0.157,1.0,1.4,0.7,0.899,1.1,283,21,1.8,-0.00008,-0.00010,30.7,31.0,9,0,0,0.0,0.32,0.00,0.00
15min,AgWx,bigpiney,439,16MAR2019:06:45:00,6.5,12.53,3.9,3.2,3.6,3.9,3.2,87,88,86,0.152,0.5,1.0,-0.0,1.25,1.4,267,11,1.8,-0.00007,-0.00009,30.7,30.9,9,0,0,0.0,0.32,0.00,0.00
15min,AgWx,bigpiney,439,16MAR2019:07:00:00,6.4,12.51,4.6,5.2,5.1,6.2,3.2,88,89,86,0.166,2.3,3.5,-0.0,1.14,1.7,264,14,2.3,-0.00007,-0.00008,30.7,30.9,9,0,0,0.0,0.32,0.00,0.00
15min,AgWx,bigpiney,439,16MAR2019:07:15:00,6.4,12.52,3.4,3.1,3.9,5.1,3.1,85,86,84,0.147,0.3,1.7,-0.7,3.091,2.9,234,5.0,3.8,-0.00004,-0.00005,30.7,31.0,9,0,0,0.0,0.32,0.00,0.00
15min,AgWx,bigpiney,439,16MAR2019:07:30:00,6.4,12.53,3.9,3.9,3.7,4.5,3.0,84,85,84,0.152,-0.0,1.1,-0.8,4.231,4.1,217,6.9,5.2,-0.00002,-0.00002,30.7,31.0,9,3,0,0.0,0.32,0.00,0.00